Tracking 31027 objects as of 19-Jul-2025
HD Live streaming from Space Station
objects crossing your sky now

DTUSAT-2

Track DTUSAT-2 now!
10-day predictions
DTUSAT-2 is classified as:


NORAD ID: 40030
Int'l Code: 2014-033W
Perigee: 542.2 km
Apogee: 552.5 km
Inclination: 98.1 °
Period: 95.4 minutes
Semi major axis: 6918 km
RCS: Unknown
Launch date: June 19, 2014
Source: Denmark (DEN)
Launch site: Orenburg, Russia (OREN)

Uplink (MHz): 1268.900
Downlink (MHz): 2401.835
Beacon (MHz): 2401.860*
Mode: 9k6CPFSK/1k2 19k2 38k4MSK CW*
Call sign: OZ2DTU
Status: Inactive

Your satellite tracking list
COSMOS 1743
Track 1 satellite(s)




NASA's NSSDC Master Catalog

Two Line Element Set (TLE):
1 40030U 14033W   25199.89221250  .00005444  00000-0  35168-3 0  9996
2 40030  98.0566 173.6283 0007446 290.8379  69.2050 15.08671712602831
Source of the keplerian elements: AMSAT